Flag for Germany Weather past 2 weeks in Munich, Bavaria, Germany

Now
45 °F

Clear.


Feels Like: 43 °F
Forecast: 42 / 67 °F
Wind: 3 mph from Northeast

Location: Munich / Franz Josef Strauss Airport


UV Index: 3 (Moderate)

Visibility: 10 mi


Pressure: 29.65 "Hg

Humidity: 87%

Dew point: 41 °F

Location of MunichLocation

Historic Weather in Munich

°F

Munich temperature yesterday

Maximum temperature yesterday: 61 °F (at 3:50 PM)
Minimum temperature yesterday: 45 °F (at 3:20 AM)
Average temperature yesterday: 53 °F

Past Weeks' High & Low Weather Summary

 TemperatureHumidityPressure
High68 °F (Apr 7, 3:50 PM)100% (Apr 6, 9:20 PM)30.36 "Hg (Apr 6, 9:20 PM)
Low25 °F (Apr 17, 5:20 AM)34% (Apr 13, 6:50 PM)29.65 "Hg (Apr 21, 2:20 AM)
Average48 °F74%30.05 "Hg
* Reported Apr 6 3:20 AM — Apr 21 3:20 AM, Munich, Weather by CustomWeather, © 2014

Note: Actual official high and low records may vary slightly from our data, if they occured in-between our weather recording intervals... More about our weather records

Advertising

Historic Weather Conditions — Data for Previous 24 hours

 ConditionsComfort  
Time TempWeatherWind HumidityBarometerVisibility
3:20 AM
Apr 21
45 °FClear.3 mph87%29.65 "Hg10 mi
2:50 AM43 °FClear.7 mph87%29.65 "Hg10 mi
2:20 AM41 °FClear.6 mph87%29.65 "Hg10 mi
1:50 AM43 °FClear.3 mph76%29.68 "Hg10 mi
1:20 AM43 °FClear.5 mph87%29.68 "Hg10 mi
12:50 AM45 °FClear.5 mph81%29.68 "Hg10 mi
12:20 AM46 °FClear.6 mph76%29.68 "Hg10 mi
11:50 PM
Apr 20
46 °FClear.5 mph76%29.68 "Hg10 mi
10:50 PM48 °FClear.8 mph71%29.68 "Hg10 mi
10:20 PM50 °FClear.9 mph71%29.71 "Hg10 mi
9:50 PM50 °FClear.8 mph71%29.68 "Hg10 mi
9:20 PM52 °FClear.9 mph67%29.71 "Hg10 mi
8:50 PM54 °FPassing clouds.9 mph63%29.68 "HgN/A
8:20 PM54 °FPassing clouds.9 mph63%29.68 "HgN/A
7:50 PM55 °FPassing clouds.12 mph59%29.68 "HgN/A
7:20 PM57 °FScattered clouds.13 mph55%29.68 "HgN/A
6:50 PM57 °FScattered clouds.13 mph55%29.68 "HgN/A
6:20 PM59 °FScattered clouds.14 mph51%29.68 "HgN/A
5:50 PM59 °FScattered clouds.15 mph51%29.68 "HgN/A
5:20 PM59 °FScattered clouds.16 mph51%29.68 "HgN/A
4:50 PM59 °FScattered clouds.18 mph51%29.68 "HgN/A
4:20 PM57 °FPartly sunny.20 mph59%29.71 "HgN/A
3:50 PM61 °FScattered clouds.18 mph52%29.71 "HgN/A
3:20 PM59 °FScattered clouds.16 mph55%29.71 "HgN/A
2:50 PM59 °FScattered clouds.18 mph59%29.71 "HgN/A
2:20 PM59 °FBroken clouds.16 mph63%29.71 "HgN/A
1:50 PM59 °FBroken clouds.15 mph59%29.71 "HgN/A
1:20 PM57 °FPartly sunny.16 mph59%29.71 "HgN/A
12:50 PM55 °FPartly sunny.17 mph63%29.71 "HgN/A
12:20 PM55 °FPartly sunny.15 mph67%29.74 "HgN/A
11:50 AM55 °FPartly sunny.16 mph67%29.74 "HgN/A
11:20 AM54 °FPartly sunny.14 mph72%29.74 "HgN/A
10:50 AM52 °FPartly sunny.15 mph77%29.74 "HgN/A
10:20 AM52 °FPartly sunny.17 mph72%29.74 "HgN/A
9:50 AM52 °FPartly sunny.16 mph77%29.74 "HgN/A
9:20 AM52 °FPassing clouds.17 mph72%29.74 "HgN/A
8:50 AM50 °FPassing clouds.17 mph76%29.74 "HgN/A
8:20 AM50 °FPassing clouds.15 mph76%29.74 "HgN/A
7:50 AM50 °FSunny.14 mph82%29.71 "Hg10 mi
7:20 AM50 °FSunny.13 mph76%29.74 "Hg10 mi
6:50 AM48 °FClear.15 mph82%29.71 "Hg10 mi
6:20 AM50 °FClear.14 mph82%29.71 "Hg10 mi
5:50 AM48 °FClear.9 mph87%29.71 "Hg10 mi
5:20 AM48 °FClear.7 mph87%29.71 "Hg10 mi
4:50 AM48 °FFog.3 mph94%29.71 "Hg5 mi
4:20 AM46 °FPassing clouds.6 mph93%29.71 "Hg4 mi
Weather by CustomWeather, © 2014

See weather overview